Regional Weather Roundup
Issued by NWS

Home | Current Version | Previous Version | Graphics & Text | Print | Product List | Glossary On
Versions: 1 2 3 4 5 6 7 8 9 10 11 12 13 14 15 16 17 18 19 20 21 22 23 24 25 26 27 28 29 30 31 32 33 34 35 36 37 38 39 40 41 42 43 44 45 46 47 48 49 50
000
ASUS43 KDMX 191701
RWRIA

WEATHER ROUNDUP FOR IOWA
NATIONAL WEATHER SERVICE DES MOINES IA
1100 AM CST SUN FEB 19 2017

NOTE: "FAIR" INDICATES FEW OR NO CLOUDS BELOW 12,000 FEET WITH NO
SIGNIFICANT WEATHER AND/OR OBSTRUCTIONS TO VISIBILITY.

* - THESE STATIONS ARE NOT NWS STATIONS...THUS NOT UNDER NWS
QUALITY CONTROL.  THEY ALSO DO NOT REPORT WEATHER SUCH
AS PRECIPITATION OR FOG.

IAZ001>003-012>014-020>022-031>034-043>046-191800-
   NORTHWEST IOWA

CITY           SKY/WX    TMP DP  RH WIND       PRES   REMARKS
CARROLL *      SUNNY     59  50  72 S14       29.90F
CHEROKEE *     SUNNY     56  49  77 S14       29.85F
DENISON *      SUNNY     57  48  72 S12       29.87F
LE MARS *      SUNNY     55  48  76 S12G20    29.82F
SHELDON *      SUNNY     54  54 100 S16G23    29.81F
SIOUX CITY     CLOUDY    55  47  74 SE14      29.82F
SPENCER        CLOUDY    53  44  71 SE10      29.86F
STORM LAKE *   SUNNY     52  46  82 S16       29.88S
$$

IAZ055>058-069>071-079>083-090>094-191800-
   SOUTHWEST IOWA

CITY           SKY/WX    TMP DP  RH WIND       PRES   REMARKS
ATLANTIC *     CLOUDY    59  50  72 S12       29.91F
CLARINDA *     SUNNY     63  52  67 S12         N/A
COUNCIL BLFS * PTSUNNY   59  50  72 S14       29.89F
CRESTON *      MOSUNNY   61  50  67 S12       29.97F
HARLAN  *      SUNNY     57  52  82 S15       29.93F
LAMONI         MOSUNNY   60  48  64 S7        29.98S
RED OAK *      MOSUNNY   61  52  72 S12G18    29.92F
SHENANDOAH *   SUNNY     63  52  67 S15       29.92F
$$

IAZ047>049-059>061-072>074-084-191800-
   CENTRAL IOWA

CITY           SKY/WX    TMP DP  RH WIND       PRES   REMARKS
AMES           SUNNY     55  45  68 S7        29.96S
ANKENY *       MOSUNNY   57  45  62 S8        29.98S
BOONE *        SUNNY     54  48  82 S12       29.95S
CHARITON *     MOSUNNY   63  50  63 S8        29.98S
DES MOINES     PTSUNNY   62  46  55 S12       29.97S
GRINNELL*      SUNNY     59  42  52 SE9       29.99F
KNOXVILLE *    MOSUNNY   63  48  59 S9        29.97F
MARSHALLTOWN   SUNNY     57  41  55 SE10      29.97S
NEWTON *       SUNNY     57  45  62 S9        29.97S
PELLA *        SUNNY     61  44  53 S7        29.99F
PERRY *          N/A     54  45  72 SE10      29.95R
$$

IAZ004>006-015-016-023>025-035-036-191800-
   NORTH CENTRAL IOWA

CITY           SKY/WX    TMP DP  RH WIND       PRES   REMARKS
ALGONA *       SUNNY     50  45  81 S13       29.90F
CLARION *      SUNNY     52  50  93 S14       29.93F
ESTHERVILLE    MOSUNNY   46  42  86 S15       29.87F
FORT DODGE *   SUNNY     55  43  62 S9        29.94S
MASON CITY     SUNNY     47  41  80 SE14      29.96F
FOREST CITY *    N/A     52  41  66 S15G21    29.93F
IOWA FALLS *     N/A     51  45  79 SE12      29.97S
$$

IAZ007>011-017>019-026>030-037>042-050>054-066-191800-
   NORTHEAST IOWA

CITY           SKY/WX    TMP DP  RH WIND       PRES   REMARKS
CEDAR RAPIDS   SUNNY     58  42  55 SE10      30.01S
CHARLES CITY * SUNNY     48  48 100 SE9       29.98F
CLINTON *      SUNNY     57  42  57 S7        30.05S
DECORAH *      SUNNY     52  39  62 S8        30.00S
DUBUQUE        SUNNY     55  42  61 S9        30.04R
MONTICELLO *   SUNNY     55  43  62 S7        30.03S
OELWEIN *      SUNNY     52  45  76 SE10      30.00F
WATERLOO       SUNNY     52  40  63 SE7       29.99F
$$

IAZ064-065-067-068-078-191800-
   EAST CENTRAL IOWA

CITY           SKY/WX    TMP DP  RH WIND       PRES   REMARKS
DAVENPORT      SUNNY     60  39  45 S7        30.05S
IOWA CITY      SUNNY     58  41  53 SE6       30.04S
MUSCATINE *    SUNNY     59  37  44 SE6       30.04S
QUAD CITIES    SUNNY     63  41  44 CALM      30.03F
$$

IAZ062-063-075>077-085>089-095>099-191800-
   SOUTHEAST IOWA

CITY           SKY/WX    TMP DP  RH WIND       PRES   REMARKS
BURLINGTON     SUNNY     59  43  55 SE5       30.03S
FAIRFIELD *    SUNNY     63  41  45 S6        30.01S
KEOKUK *       SUNNY     61  46  59 SW7       30.03S
OTTUMWA        SUNNY     62  41  46 S8        30.00S
WASHINGTON *   SUNNY     63  39  42 S8        30.03S
$$

ABBREVIATIONS USED IN REMARKS
   TC - TEMPERATURES IN CELSIUS
  WCI - WIND CHILL INDEX
   HX - HEAT INDEX
  VSB - VISIBILITY
$$





USA.gov is the U.S. government's official web portal to all federal, state and local government web resources and services.